Location: Beddau
(51.5575°N, 3.3561°W)
Time: 12:41:43
(UTC+00:00)

SKYMED 2 - Pass Details

Date: 03 March 2021
Orbit: 621 x 623 km, 97.9° (Epoch: 17 April)

Event Time Altitude Azimuth Distance (km) Brightness Sun altitude
Rises 18:30:31 0° 14° (NNE) 2,919 6.8 -5.9°
Reaches altitude 10° 18:32:43 10° 15° (NNE) 2,008 6.0 -6.3°
Maximum altitude 18:37:06 87° 101° (E) 632 3.6 -6.9°
Drops below altitude 10° 18:41:27 10° 194° (SSW) 1,990 6.4 -7.6°
Sets 18:43:37 0° 195° (SSW) 2,892 7.2 -8.0°
